Total_Precipitation_Accumulation
3.62 3.67 3.49 3.49 3.31 3.43 3.61 3.63 3.35 3.48 3.66 3.63 3.45 3.37 3.31 2.99 2.81 2.67 2.82 3.02 2.96 2.93 3.19 3.18 3.08 2.94 2.62 2.28 2.13 2.00 1.92 1.78 1.62 1.38 1.30 1.20 1.10 1.00 0.85 0.74 0.68 0.63 0.63
3.37 3.28 3.35 3.48 3.28 3.28 3.31 3.34 3.39 3.72 3.92 3.98 3.68 3.43 3.34 3.21 3.05 2.99 3.04 3.27 3.24 3.00 3.16 3.55 3.72 3.61 3.37 3.02 2.70 2.47 2.37 2.19 1.88 1.48 1.35 1.31 1.22 1.13 1.05 0.98 0.87 0.74 0.69
3.35 3.28 3.26 3.11 3.09 3.15 3.33 3.39 3.52 3.75 3.63 3.71 3.76 3.55 3.36 3.20 3.23 3.19 3.21 3.22 2.91 3.05 3.32 3.57 3.77 3.78 3.79 3.64 3.50 3.27 2.98 2.55 2.12 1.72 1.43 1.34 1.24 1.14 1.12 1.11 1.10 1.00 0.87
3.04 3.10 2.92 2.82 2.88 2.77 2.93 3.21 3.27 3.37 3.52 3.70 3.69 3.38 3.26 3.28 3.15 3.17 3.03 2.88 3.01 2.77 3.23 3.61 3.72 3.57 3.72 4.00 4.23 4.24 3.70 2.96 2.40 2.02 1.72 1.56 1.44 1.25 1.13 1.10 1.12 1.10 0.95
2.46 2.56 2.61 2.71 2.57 2.55 2.67 2.55 3.10 3.32 3.46 3.56 3.24 3.14 2.94 3.12 3.11 2.92 2.94 2.72 2.87 2.86 2.96 3.12 3.36 3.26 3.51 4.15 4.73 4.90 4.55 3.77 2.98 2.56 2.32 2.12 1.97 1.75 1.45 1.28 1.18 1.09 0.98
2.35 2.39 2.37 2.48 2.39 2.53 2.77 2.98 3.30 3.29 3.19 3.26 2.78 2.80 2.79 2.57 2.62 2.63 2.61 2.68 2.66 2.38 2.57 2.89 3.26 2.87 3.19 3.79 4.29 4.64 4.89 4.65 3.92 3.31 3.01 2.92 2.78 2.37 1.82 1.51 1.33 1.22 1.12
2.33 2.56 2.32 2.53 2.38 2.51 2.63 2.74 2.94 3.01 2.87 2.93 3.14 3.07 2.64 2.30 2.23 2.19 2.31 2.58 2.48 2.38 2.57 3.07 3.36 3.26 2.87 2.85 3.08 3.65 4.44 4.77 4.58 4.00 3.52 3.25 3.18 2.83 2.18 1.78 1.55 1.45 1.39
2.11 2.10 2.40 2.40 2.43 2.65 2.66 2.66 2.88 2.83 2.62 2.69 3.03 3.27 2.90 2.67 2.22 1.70 1.84 1.88 2.01 2.28 2.38 2.46 2.76 3.18 3.02 3.05 2.55 2.63 3.55 4.32 4.85 4.78 4.27 3.66 3.30 3.00 2.61 2.24 1.91 1.71 1.63
1.84 1.96 2.10 2.27 2.51 2.43 2.61 2.70 2.61 2.71 2.75 2.69 2.73 3.15 3.10 2.88 2.42 1.83 1.58 1.63 1.83 2.13 2.19 2.28 2.32 2.49 2.53 2.92 3.12 2.77 2.83 3.25 4.23 5.01 5.07 4.38 3.58 3.06 2.81 2.67 2.51 2.25 2.02
1.77 1.79 1.91 2.11 2.33 2.24 2.52 2.29 2.44 2.74 2.83 2.64 2.57 2.51 2.55 2.66 2.73 2.32 1.85 1.58 1.67 1.82 1.96 1.93 2.09 2.33 2.45 2.64 2.85 2.70 2.35 2.45 3.24 4.19 4.85 4.81 4.15 3.55 3.24 3.18 3.33 3.21 2.80
1.94 1.76 1.87 2.09 2.21 2.17 2.22 2.25 2.63 2.65 2.58 2.52 2.55 2.58 2.51 2.46 2.38 2.39 2.17 1.86 1.67 1.44 1.46 1.62 1.92 2.12 2.21 2.43 2.79 2.59 2.36 2.17 2.35 2.95 3.64 4.14 4.27 3.99 3.57 3.37 3.73 4.00 3.82
2.10 1.92 1.93 2.09 2.08 2.07 2.10 2.15 2.43 2.44 2.57 2.64 2.64 2.50 2.55 2.41 2.34 2.51 2.18 1.85 1.69 1.24 1.21 1.31 1.51 1.67 1.88 2.11 2.26 2.32 2.31 2.29 2.25 2.35 2.54 2.92 3.35 3.46 3.42 3.56 4.00 4.34 4.51
1.79 1.84 1.94 2.13 1.99 1.95 2.01 2.28 2.40 2.39 2.52 2.55 2.45 2.34 2.29 2.06 2.18 2.34 2.18 1.76 1.63 1.30 1.33 1.21 1.26 1.54 1.69 2.06 2.21 2.25 2.13 2.22 2.04 1.96 2.02 2.09 2.24 2.55 2.93 3.29 3.75 4.10 4.45
1.66 1.74 1.85 1.88 1.87 1.91 1.92 2.32 2.20 2.27 2.42 2.32 2.13 2.42 2.29 1.94 2.13 2.25 2.30 2.41 2.09 1.76 1.68 1.41 1.35 1.66 2.02 2.18 2.47 2.52 2.02 2.05 1.89 1.74 1.69 1.78 1.80 1.94 2.12 2.36 2.69 2.97 3.28
1.71 1.80 1.88 1.90 1.94 2.09 2.22 2.42 2.25 2.28 2.42 2.21 2.22 2.49 2.31 2.09 2.14 2.16 2.37 2.66 2.72 2.28 1.92 1.78 1.73 1.75 1.95 2.10 2.42 2.24 2.05 2.21 2.02 1.86 1.77 1.69 1.65 1.71 1.79 1.86 1.94 2.05 2.17
1.77 1.91 2.08 2.07 2.12 2.17 2.28 2.39 2.19 2.30 2.34 2.23 2.32 2.54 2.49 2.32 2.36 2.29 2.39 2.59 2.79 2.66 2.18 1.76 1.80 1.80 1.92 1.80 2.13 1.94 1.98 2.15 1.97 1.86 1.79 1.74 1.69 1.68 1.69 1.74 1.76 1.74 1.71
1.85 1.88 2.02 2.08 2.04 2.09 2.19 2.30 2.11 2.19 2.19 2.23 2.25 2.38 2.44 2.63 2.63 2.55 2.68 2.73 2.76 2.81 2.43 1.91 1.92 2.07 2.11 1.96 1.97 1.87 1.86 1.87 1.80 1.89 1.77 1.71 1.65 1.57 1.47 1.42 1.48 1.51 1.51
1.73 1.79 1.86 1.85 1.77 1.89 2.09 2.11 2.02 2.10 2.16 2.16 2.34 2.59 2.54 2.64 2.71 2.74 2.91 2.73 2.76 3.05 2.90 2.45 2.33 2.45 2.37 2.21 2.17 2.05 1.77 1.66 1.66 1.88 1.76 1.67 1.56 1.47 1.40 1.33 1.32 1.34 1.35
1.77 1.78 1.77 1.71 1.71 1.78 1.90 1.90 2.05 2.19 2.22 2.30 2.49 2.60 2.70 2.97 2.80 2.85 2.88 2.79 2.80 3.02 3.18 2.85 2.56 2.69 2.61 2.39 2.40 2.10 1.92 1.99 1.72 1.78 1.82 1.70 1.56 1.47 1.38 1.34 1.31 1.28 1.22
1.91 1.93 1.93 1.96 1.98 1.95 1.97 2.07 2.20 2.31 2.36 2.43 2.60 2.67 2.74 2.85 2.92 3.09 3.09 3.15 3.28 3.41 3.51 3.27 3.02 3.06 3.05 2.96 2.81 2.39 2.27 2.16 1.98 1.79 1.88 1.77 1.67 1.57 1.46 1.34 1.26 1.25 1.24
2.12 2.28 2.30 2.33 2.41 2.36 2.18 2.35 2.44 2.45 2.68 2.67 2.72 2.69 2.67 2.85 2.98 3.12 2.95 3.12 3.46 3.61 3.69 3.67 3.54 3.67 3.55 3.46 3.08 2.71 2.58 2.44 2.23 1.94 1.89 1.75 1.70 1.57 1.52 1.50 1.42 1.37 1.33
2.53 2.66 2.63 2.62 2.58 2.27 2.45 2.58 2.59 2.70 2.81 2.79 2.75 2.78 2.73 2.73 2.66 2.70 2.73 2.86 3.12 3.28 3.44 3.64 3.69 3.73 3.68 3.61 3.43 3.15 2.79 2.52 2.26 2.04 2.12 1.95 1.82 1.72 1.55 1.44 1.56 1.51 1.41
2.55 2.63 2.65 2.70 2.55 2.51 2.64 2.48 2.51 2.51 2.60 2.71 2.77 2.80 2.54 2.37 2.50 2.35 2.52 2.62 2.59 2.63 2.74 3.03 3.17 3.14 3.40 3.59 3.57 3.11 2.77 2.47 2.20 2.11 2.23 2.02 1.84 1.74 1.62 1.57 1.67 1.50 1.41
2.85 2.86 2.83 2.82 2.75 2.61 2.62 2.41 2.51 2.39 2.39 2.44 2.51 2.56 2.51 2.39 2.37 2.49 2.51 2.38 2.13 2.07 2.21 2.20 2.22 2.45 2.81 3.23 3.38 3.18 3.14 2.81 2.42 2.20 2.20 2.05 1.81 1.69 1.56 1.53 1.69 1.56 1.43
3.09 3.10 3.07 3.02 2.96 2.96 2.94 2.64 2.56 2.35 2.40 2.41 2.47 2.48 2.44 2.26 2.39 2.35 2.29 2.22 2.06 1.89 1.92 1.98 2.02 2.22 2.53 2.81 3.09 3.13 3.02 2.92 2.53 2.19 2.12 2.05 1.84 1.81 1.71 1.55 1.52 1.59 1.46
3.11 3.13 3.03 3.05 2.98 2.95 3.07 2.82 2.62 2.35 2.37 2.41 2.51 2.53 2.53 2.32 2.36 2.29 2.20 2.20 2.05 1.93 1.97 1.94 1.96 1.99 2.02 2.35 2.74 2.71 2.74 2.81 2.58 2.31 2.03 2.08 1.94 2.01 1.92 1.55 1.36 1.35 1.36